Time,TemperatureF,DewpointF,PressureIn,WindDirection,WindDirectionDegrees,WindSpeedMPH,WindSpeedGustMPH,Humidity,HourlyPrecipIn,Conditions,Clouds,dailyrainin,SoftwareType,DateUTC
2013-03-07 00:07:00,57.9,48.0,30.10,North,5,13.0,-999.0,69,-99.99,,,0.00,weatherlink.com 1.10,2013-03-07 05:07:00,
2013-03-07 00:22:00,57.4,46.0,30.10,NE,38,13.0,-999.0,66,-99.99,,,0.00,weatherlink.com 1.10,2013-03-07 05:22:00,
2013-03-07 00:37:00,56.7,45.0,30.10,NNE,16,11.0,-999.0,66,-99.99,,,0.00,weatherlink.com 1.10,2013-03-07 05:37:00,
2013-03-07 00:52:00,56.6,46.0,30.10,NE,43,12.0,-999.0,67,-99.99,,,0.00,weatherlink.com 1.10,2013-03-07 05:52:00,
2013-03-07 01:07:00,56.1,45.0,30.10,NNE,15,7.0,-999.0,67,-99.99,,,0.00,weatherlink.com 1.10,2013-03-07 06:07:00,
2013-03-07 01:22:00,56.0,45.0,30.10,NNE,22,13.0,-999.0,66,-99.99,,,0.00,weatherlink.com 1.10,2013-03-07 06:22:00,
2013-03-07 01:37:00,55.9,45.0,30.10,NNE,24,10.0,-999.0,67,-99.99,,,0.00,weatherlink.com 1.10,2013-03-07 06:37:00,
2013-03-07 01:52:00,55.0,45.0,30.10,ENE,64,7.0,-999.0,70,-99.99,,,0.00,weatherlink.com 1.10,2013-03-07 06:52:00,
2013-03-07 02:07:00,54.1,44.0,30.10,NE,40,12.0,-999.0,69,-99.99,,,0.00,weatherlink.com 1.10,2013-03-07 07:07:00,
2013-03-07 02:22:00,53.9,44.0,30.09,NE,40,16.0,-999.0,70,-99.99,,,0.00,weatherlink.com 1.10,2013-03-07 07:22:00,
2013-03-07 02:37:00,53.5,44.0,30.09,NE,40,16.0,-999.0,70,-99.99,,,0.00,weatherlink.com 1.10,2013-03-07 07:37:00,
2013-03-07 02:53:00,52.7,42.0,30.09,NE,49,15.0,-999.0,67,-99.99,,,0.00,weatherlink.com 1.10,2013-03-07 07:53:00,
2013-03-07 03:08:00,52.3,41.0,30.09,NE,54,11.0,-999.0,66,-99.99,,,0.00,weatherlink.com 1.10,2013-03-07 08:08:00,
2013-03-07 03:23:00,51.9,42.0,30.09,NE,49,12.0,-999.0,68,-99.99,,,0.00,weatherlink.com 1.10,2013-03-07 08:23:00,
2013-03-07 03:38:00,51.6,40.0,30.09,NE,35,12.0,-999.0,66,-99.99,,,0.00,weatherlink.com 1.10,2013-03-07 08:38:00,
2013-03-07 03:53:00,51.3,40.0,30.09,NNE,24,13.0,-999.0,65,-99.99,,,0.00,weatherlink.com 1.10,2013-03-07 08:53:00,
2013-03-07 04:08:00,51.2,41.0,30.09,NE,41,13.0,-999.0,67,-99.99,,,0.00,weatherlink.com 1.10,2013-03-07 09:08:00,
2013-03-07 04:23:00,51.2,40.0,30.09,NNE,22,15.0,-999.0,65,-99.99,,,0.00,weatherlink.com 1.10,2013-03-07 09:23:00,
2013-03-07 04:38:00,51.3,41.0,30.09,NE,53,19.0,-999.0,68,-99.99,,,0.00,weatherlink.com 1.10,2013-03-07 09:38:00,
2013-03-07 04:53:00,51.2,40.0,30.09,NE,48,17.0,-999.0,66,-99.99,,,0.00,weatherlink.com 1.10,2013-03-07 09:53:00,
2013-03-07 05:08:00,50.6,39.0,30.10,NE,36,18.0,-999.0,65,-99.99,,,0.00,weatherlink.com 1.10,2013-03-07 10:08:00,
2013-03-07 05:23:00,50.5,39.0,30.10,NNE,26,15.0,-999.0,66,-99.99,,,0.00,weatherlink.com 1.10,2013-03-07 10:23:00,
2013-03-07 05:38:00,50.7,40.0,30.11,NE,46,16.0,-999.0,66,-99.99,,,0.00,weatherlink.com 1.10,2013-03-07 10:38:00,
2013-03-07 05:53:00,49.9,39.0,30.11,NE,41,17.0,-999.0,66,-99.99,,,0.00,weatherlink.com 1.10,2013-03-07 10:53:00,
2013-03-07 06:08:00,49.4,40.0,30.12,NE,42,14.0,-999.0,69,-99.99,,,0.00,weatherlink.com 1.10,2013-03-07 11:08:00,
2013-03-07 06:23:00,49.2,40.0,30.11,NE,42,19.0,-999.0,70,-99.99,,,0.00,weatherlink.com 1.10,2013-03-07 11:23:00,
2013-03-07 06:38:00,48.0,38.0,30.12,NE,53,13.0,-999.0,69,-99.99,,,0.00,weatherlink.com 1.10,2013-03-07 11:38:00,
2013-03-07 06:53:00,48.0,39.0,30.13,NE,55,11.0,-999.0,70,-99.99,,,0.00,weatherlink.com 1.10,2013-03-07 11:53:00,
2013-03-07 07:08:00,47.6,37.0,30.14,NE,46,8.0,-999.0,68,-99.99,,,0.00,weatherlink.com 1.10,2013-03-07 12:08:00,
2013-03-07 07:23:00,47.8,38.0,30.14,NE,46,12.0,-999.0,68,-99.99,,,0.00,weatherlink.com 1.10,2013-03-07 12:23:00,
2013-03-07 07:38:00,48.1,38.0,30.14,NE,49,17.0,-999.0,67,-99.99,,,0.00,weatherlink.com 1.10,2013-03-07 12:38:00,
2013-03-07 07:53:00,48.4,39.0,30.15,NE,47,16.0,-999.0,69,-99.99,,,0.00,weatherlink.com 1.10,2013-03-07 12:53:00,
2013-03-07 08:23:00,48.3,37.0,30.16,NNE,23,13.0,-999.0,65,-99.99,,,0.00,weatherlink.com 1.10,2013-03-07 13:23:00,
2013-03-07 08:38:00,48.4,37.0,30.17,NE,42,20.0,-999.0,65,-99.99,,,0.00,weatherlink.com 1.10,2013-03-07 13:38:00,
2013-03-07 08:53:00,48.8,37.0,30.17,NE,42,14.0,-999.0,65,-99.99,,,0.00,weatherlink.com 1.10,2013-03-07 13:53:00,
2013-03-07 09:08:00,49.2,38.0,30.18,NE,55,18.0,-999.0,65,-99.99,,,0.00,weatherlink.com 1.10,2013-03-07 14:08:00,
2013-03-07 09:23:00,49.6,37.0,30.18,NE,45,11.0,-999.0,63,-99.99,,,0.00,weatherlink.com 1.10,2013-03-07 14:23:00,
2013-03-07 09:38:00,49.9,37.0,30.18,NE,49,14.0,-999.0,62,-99.99,,,0.00,weatherlink.com 1.10,2013-03-07 14:38:00,
2013-03-07 09:53:00,50.3,37.0,30.18,NNE,31,7.0,-999.0,60,-99.99,,,0.00,weatherlink.com 1.10,2013-03-07 14:53:00,
2013-03-07 10:08:00,50.8,38.0,30.19,NNE,28,7.0,-999.0,61,-99.99,,,0.00,weatherlink.com 1.10,2013-03-07 15:08:00,
2013-03-07 10:23:00,51.0,37.0,30.18,NE,53,8.0,-999.0,59,-99.99,,,0.00,weatherlink.com 1.10,2013-03-07 15:23:00,
2013-03-07 10:38:00,51.6,37.0,30.18,NE,54,4.0,-999.0,58,-99.99,,,0.00,weatherlink.com 1.10,2013-03-07 15:38:00,
2013-03-07 10:53:00,52.4,38.0,30.19,NE,44,7.0,-999.0,58,-99.99,,,0.00,weatherlink.com 1.10,2013-03-07 15:53:00,
2013-03-07 11:08:00,53.0,39.0,30.18,NNE,13,12.0,-999.0,60,-99.99,,,0.00,weatherlink.com 1.10,2013-03-07 16:08:00,
2013-03-07 11:23:00,53.5,39.0,30.19,NNE,22,7.0,-999.0,59,-99.99,,,0.00,weatherlink.com 1.10,2013-03-07 16:23:00,
2013-03-07 11:38:00,53.6,38.0,30.19,North,355,7.0,-999.0,57,-99.99,,,0.00,weatherlink.com 1.10,2013-03-07 16:38:00,
2013-03-07 11:53:00,53.9,39.0,30.18,NNW,346,4.0,-999.0,57,-99.99,,,0.00,weatherlink.com 1.10,2013-03-07 16:53:00,
2013-03-07 12:08:00,54.4,40.0,30.18,NNW,339,9.0,-999.0,58,-99.99,,,0.00,weatherlink.com 1.10,2013-03-07 17:08:00,
2013-03-07 12:23:00,54.7,38.0,30.18,NNW,329,5.0,-999.0,54,-99.99,,,0.00,weatherlink.com 1.10,2013-03-07 17:23:00,
2013-03-07 12:38:00,55.1,42.0,30.17,North,355,9.0,-999.0,61,-99.99,,,0.00,weatherlink.com 1.10,2013-03-07 17:38:00,
2013-03-07 12:53:00,55.1,40.0,30.17,North,355,10.0,-999.0,58,-99.99,,,0.00,weatherlink.com 1.10,2013-03-07 17:53:00,
2013-03-07 13:08:00,55.2,40.0,30.16,North,350,9.0,-999.0,58,-99.99,,,0.00,weatherlink.com 1.10,2013-03-07 18:08:00,
2013-03-07 13:23:00,55.6,41.0,30.15,NNW,344,11.0,-999.0,58,-99.99,,,0.00,weatherlink.com 1.10,2013-03-07 18:23:00,
2013-03-07 13:38:00,55.3,42.0,30.14,WNW,302,13.0,-999.0,62,-99.99,,,0.00,weatherlink.com 1.10,2013-03-07 18:38:00,
2013-03-07 13:54:00,54.9,43.0,30.14,WNW,289,12.0,-999.0,64,-99.99,,,0.00,weatherlink.com 1.10,2013-03-07 18:54:00,
2013-03-07 14:09:00,54.9,42.0,30.14,NW,308,11.0,-999.0,63,-99.99,,,0.00,weatherlink.com 1.10,2013-03-07 19:09:00,
2013-03-07 14:24:00,55.0,44.0,30.13,NNW,327,16.0,-999.0,66,-99.99,,,0.00,weatherlink.com 1.10,2013-03-07 19:24:00,
2013-03-07 14:39:00,54.6,43.0,30.12,NW,315,15.0,-999.0,66,-99.99,,,0.00,weatherlink.com 1.10,2013-03-07 19:39:00,
2013-03-07 14:54:00,54.9,43.0,30.12,NW,311,16.0,-999.0,65,-99.99,,,0.00,weatherlink.com 1.10,2013-03-07 19:54:00,
2013-03-07 15:09:00,54.7,43.0,30.13,NW,316,15.0,-999.0,65,-99.99,,,0.00,weatherlink.com 1.10,2013-03-07 20:09:00,
2013-03-07 15:24:00,54.8,44.0,30.13,NW,317,12.0,-999.0,66,-99.99,,,0.00,weatherlink.com 1.10,2013-03-07 20:24:00,
2013-03-07 15:54:00,56.0,45.0,30.13,NW,315,15.0,-999.0,67,-99.99,,,0.00,weatherlink.com 1.10,2013-03-07 20:54:00,
2013-03-07 16:09:00,56.0,45.0,30.12,NW,320,17.0,-999.0,66,-99.99,,,0.00,weatherlink.com 1.10,2013-03-07 21:09:00,
2013-03-07 16:24:00,55.7,45.0,30.12,NW,325,14.0,-999.0,68,-99.99,,,0.00,weatherlink.com 1.10,2013-03-07 21:24:00,
2013-03-07 16:39:00,55.9,46.0,30.12,NNW,333,13.0,-999.0,69,-99.99,,,0.00,weatherlink.com 1.10,2013-03-07 21:39:00,
2013-03-07 16:54:00,56.3,46.0,30.12,NW,325,14.0,-999.0,69,-99.99,,,0.00,weatherlink.com 1.10,2013-03-07 21:54:00,
2013-03-07 17:09:00,56.6,46.0,30.12,NNW,329,10.0,-999.0,67,-99.99,,,0.00,weatherlink.com 1.10,2013-03-07 22:09:00,
2013-03-07 17:24:00,56.7,47.0,30.12,NNW,344,11.0,-999.0,70,-99.99,,,0.00,weatherlink.com 1.10,2013-03-07 22:24:00,
2013-03-07 17:39:00,56.6,47.0,30.11,NNW,344,12.0,-999.0,71,-99.99,,,0.00,weatherlink.com 1.10,2013-03-07 22:39:00,
2013-03-07 17:54:00,56.5,47.0,30.12,NNW,346,10.0,-999.0,70,-99.99,,,0.00,weatherlink.com 1.10,2013-03-07 22:54:00,
2013-03-07 18:09:00,56.5,47.0,30.12,NNW,347,9.0,-999.0,71,-99.99,,,0.00,weatherlink.com 1.10,2013-03-07 23:09:00,
2013-03-07 18:24:00,56.4,47.0,30.12,NW,317,10.0,-999.0,72,-99.99,,,0.00,weatherlink.com 1.10,2013-03-07 23:24:00,
2013-03-07 18:39:00,56.1,47.0,30.13,NW,323,9.0,-999.0,72,-99.99,,,0.00,weatherlink.com 1.10,2013-03-07 23:39:00,
2013-03-07 18:54:00,55.9,47.0,30.14,NW,325,9.0,-999.0,72,-99.99,,,0.00,weatherlink.com 1.10,2013-03-07 23:54:00,
2013-03-07 19:09:00,55.8,47.0,30.14,NNW,332,9.0,-999.0,73,-99.99,,,0.00,weatherlink.com 1.10,2013-03-08 00:09:00,
2013-03-07 19:24:00,55.7,47.0,30.14,NNW,333,11.0,-999.0,73,-99.99,,,0.00,weatherlink.com 1.10,2013-03-08 00:24:00,
2013-03-07 19:39:00,55.9,48.0,30.15,NW,321,10.0,-999.0,75,-99.99,,,0.00,weatherlink.com 1.10,2013-03-08 00:39:00,
2013-03-07 19:54:00,56.0,48.0,30.15,North,355,14.0,-999.0,75,-99.99,,,0.00,weatherlink.com 1.10,2013-03-08 00:54:00,
2013-03-07 20:09:00,56.1,48.0,30.15,NW,323,10.0,-999.0,75,-99.99,,,0.00,weatherlink.com 1.10,2013-03-08 01:09:00,
2013-03-07 20:24:00,55.9,48.0,30.16,NNW,332,10.0,-999.0,75,-99.99,,,0.00,weatherlink.com 1.10,2013-03-08 01:24:00,
2013-03-07 20:39:00,56.1,48.0,30.16,NNW,338,11.0,-999.0,75,-99.99,,,0.00,weatherlink.com 1.10,2013-03-08 01:39:00,
2013-03-07 20:54:00,56.2,49.0,30.16,NNW,340,10.0,-999.0,76,-99.99,,,0.00,weatherlink.com 1.10,2013-03-08 01:54:00,
2013-03-07 21:09:00,56.5,49.0,30.17,NNW,336,10.0,-999.0,75,-99.99,,,0.00,weatherlink.com 1.10,2013-03-08 02:09:00,
2013-03-07 21:24:00,56.8,49.0,30.17,NNW,336,10.0,-999.0,76,-99.99,,,0.00,weatherlink.com 1.10,2013-03-08 02:24:00,
2013-03-07 21:39:00,56.4,49.0,30.17,North,360,13.0,-999.0,75,-99.99,,,0.00,weatherlink.com 1.10,2013-03-08 02:39:00,
2013-03-07 21:54:00,56.6,49.0,30.17,North,5,15.0,-999.0,75,-99.99,,,0.00,weatherlink.com 1.10,2013-03-08 02:54:00,
2013-03-07 22:09:00,56.1,49.0,30.17,North,11,8.0,-999.0,76,-99.99,,,0.00,weatherlink.com 1.10,2013-03-08 03:09:00,
2013-03-07 22:24:00,56.0,49.0,30.17,NNE,15,10.0,-999.0,76,-99.99,,,0.00,weatherlink.com 1.10,2013-03-08 03:24:00,
2013-03-07 22:39:00,55.6,48.0,30.17,NNE,33,8.0,-999.0,76,-99.99,,,0.00,weatherlink.com 1.10,2013-03-08 03:39:00,
2013-03-07 22:54:00,55.1,48.0,30.17,NNE,32,7.0,-999.0,77,-99.99,,,0.00,weatherlink.com 1.10,2013-03-08 03:54:00,
2013-03-07 23:09:00,54.7,48.0,30.16,NE,36,7.0,-999.0,77,-99.99,,,0.00,weatherlink.com 1.10,2013-03-08 04:09:00,
2013-03-07 23:24:00,54.6,48.0,30.16,NE,41,7.0,-999.0,78,-99.99,,,0.00,weatherlink.com 1.10,2013-03-08 04:24:00,
2013-03-07 23:39:00,54.4,48.0,30.16,NE,36,7.0,-999.0,78,-99.99,,,0.00,weatherlink.com 1.10,2013-03-08 04:39:00,
2013-03-07 23:54:00,54.2,47.0,30.16,NE,36,8.0,-999.0,78,-99.99,,,0.00,weatherlink.com 1.10,2013-03-08 04:54:00,